GLO1183 SBFI-SBGR

Flight info

Callsign GLO1183
Flight time N/A
Altitude 35000
Route KAMIL UZ28 XONUG UZ121 BUXUK
Aircraft B738/M-SDE2E3FGHIRWXY/LB1

Departure

Time 2026-05-01 14:39
Airport Cataratas International Airport (SBFI)

Arrival

Time N/A
Airport São Paulo/Guarulhos–Governor André Franco Montoro International Airport (SBGR)
Time Latitude Longitude Altitude Speed Heading
2026-05-01 14:10 -25.59758 -54.48771 797 ft 0 kts 221°
2026-05-01 14:30 -25.59753 -54.48766 797 ft 4 kts 220°
2026-05-01 14:30 -25.59735 -54.48746 797 ft 4 kts 242°
2026-05-01 14:31 -25.59736 -54.48707 797 ft 0 kts 311°
2026-05-01 14:34 -25.59736 -54.48708 797 ft 0 kts 311°
2026-05-01 14:34 -25.59732 -54.48713 797 ft 2 kts 311°
2026-05-01 14:34 -25.59720 -54.48728 797 ft 4 kts 311°
2026-05-01 14:34 -25.59681 -54.48776 797 ft 13 kts 311°
2026-05-01 14:35 -25.59606 -54.48871 797 ft 20 kts 311°
2026-05-01 14:35 -25.59527 -54.48973 798 ft 11 kts 311°
2026-05-01 14:35 -25.59479 -54.49036 798 ft 10 kts 309°
2026-05-01 14:35 -25.59415 -54.49040 798 ft 10 kts 32°
2026-05-01 14:36 -25.59351 -54.49037 798 ft 10 kts 323°
2026-05-01 14:36 -25.59302 -54.49091 799 ft 10 kts 311°
2026-05-01 14:36 -25.59254 -54.49154 799 ft 12 kts 310°
2026-05-01 14:36 -25.59184 -54.49244 796 ft 19 kts 311°
2026-05-01 14:37 -25.59096 -54.49355 795 ft 19 kts 311°
2026-05-01 14:37 -25.59014 -54.49458 796 ft 13 kts 315°
2026-05-01 14:37 -25.58948 -54.49498 795 ft 10 kts 338°
2026-05-01 14:37 -25.58947 -54.49546 795 ft 7 kts 192°
2026-05-01 14:38 -25.58975 -54.49510 795 ft 6 kts 123°
2026-05-01 14:38 -25.58981 -54.49502 795 ft 0 kts 127°
2026-05-01 14:38 -25.59052 -54.49408 796 ft 54 kts 130°
2026-05-01 14:38 -25.59491 -54.48848 799 ft 136 kts 130°
2026-05-01 14:39 -25.60201 -54.47922 1264 ft 167 kts 127°
2026-05-01 14:39 -25.61030 -54.46881 2017 ft 192 kts 128°
2026-05-01 14:39 -25.61935 -54.45715 2885 ft 206 kts 123°
2026-05-01 14:39 -25.62877 -54.44495 3702 ft 211 kts 124°
2026-05-01 14:40 -25.63847 -54.43243 4494 ft 216 kts 125°
2026-05-01 14:40 -25.64834 -54.41972 5260 ft 219 kts 126°
2026-05-01 14:40 -25.65824 -54.40680 6015 ft 220 kts 121°
2026-05-01 14:40 -25.66358 -54.39116 6441 ft 226 kts 85°
2026-05-01 14:41 -25.66179 -54.37326 6618 ft 243 kts 76°
2026-05-01 14:41 -25.65909 -54.35457 7238 ft 240 kts 74°
2026-05-01 14:41 -25.65646 -54.33669 8090 ft 233 kts 77°
2026-05-01 14:41 -25.65427 -54.31877 8760 ft 239 kts 77°
2026-05-01 14:42 -25.65193 -54.29945 8997 ft 266 kts 78°
2026-05-01 14:42 -25.64936 -54.27812 9237 ft 293 kts 78°
2026-05-01 14:42 -25.64664 -54.25543 9789 ft 305 kts 79°
2026-05-01 14:42 -25.64380 -54.23153 10432 ft 314 kts 79°
2026-05-01 14:43 -25.64085 -54.20694 10627 ft 339 kts 79°
2026-05-01 14:43 -25.63765 -54.18041 11019 ft 353 kts 79°
2026-05-01 14:43 -25.63439 -54.15319 11650 ft 358 kts 79°
2026-05-01 14:43 -25.63108 -54.12562 12360 ft 362 kts 80°
2026-05-01 14:44 -25.62772 -54.09780 13041 ft 366 kts 80°
2026-05-01 14:44 -25.62082 -54.04109 14323 ft 375 kts 80°
2026-05-01 14:44 -25.61731 -54.01232 14910 ft 380 kts 80°
2026-05-01 14:45 -25.61374 -53.98310 15500 ft 384 kts 80°
2026-05-01 14:45 -25.60648 -53.92386 16694 ft 392 kts 80°
2026-05-01 14:45 -25.60278 -53.89380 17255 ft 396 kts 80°
2026-05-01 14:46 -25.59903 -53.86338 17807 ft 401 kts 80°
2026-05-01 14:46 -25.59145 -53.80198 18798 ft 410 kts 80°
2026-05-01 14:46 -25.58755 -53.77052 19257 ft 414 kts 79°
2026-05-01 14:47 -25.58289 -53.73897 19767 ft 416 kts 77°
2026-05-01 14:47 -25.57719 -53.70750 20291 ft 417 kts 75°
2026-05-01 14:47 -25.57107 -53.67593 20781 ft 420 kts 75°
2026-05-01 14:48 -25.55862 -53.61213 21713 ft 427 kts 75°
2026-05-01 14:48 -25.55243 -53.57980 22189 ft 430 kts 75°
2026-05-01 14:48 -25.54009 -53.51439 23102 ft 437 kts 75°
2026-05-01 14:49 -25.52769 -53.44817 23913 ft 443 kts 75°
2026-05-01 14:49 -25.51505 -53.38081 24584 ft 450 kts 75°
2026-05-01 14:50 -25.50656 -53.33565 25008 ft 455 kts 75°
2026-05-01 14:50 -25.48916 -53.24344 25864 ft 464 kts 75°
2026-05-01 14:51 -25.48254 -53.20840 26194 ft 466 kts 75°
2026-05-01 14:51 -25.46912 -53.13759 26827 ft 473 kts 75°
2026-05-01 14:52 -25.45548 -53.06582 27408 ft 480 kts 75°
2026-05-01 14:52 -25.44861 -53.02968 27714 ft 483 kts 75°
2026-05-01 14:52 -25.43467 -52.95662 28382 ft 486 kts 75°
2026-05-01 14:53 -25.42762 -52.91982 28676 ft 489 kts 75°
2026-05-01 14:53 -25.42054 -52.88291 28921 ft 493 kts 75°
2026-05-01 14:53 -25.41340 -52.84569 29179 ft 496 kts 75°
2026-05-01 14:53 -25.40622 -52.80833 29451 ft 498 kts 75°
2026-05-01 14:54 -25.39901 -52.77079 29725 ft 501 kts 75°
2026-05-01 14:54 -25.39175 -52.73304 30009 ft 502 kts 74°
2026-05-01 14:54 -25.38455 -52.69570 30288 ft 503 kts 74°
2026-05-01 14:54 -25.37713 -52.65723 30502 ft 506 kts 74°
2026-05-01 14:55 -25.36985 -52.61958 30722 ft 508 kts 74°
2026-05-01 14:55 -25.36245 -52.58134 30948 ft 510 kts 74°
2026-05-01 14:55 -25.35500 -52.54290 31175 ft 511 kts 74°
2026-05-01 14:55 -25.34753 -52.50445 31371 ft 514 kts 74°
2026-05-01 14:56 -25.33999 -52.46568 31606 ft 515 kts 74°
2026-05-01 14:56 -25.33248 -52.42705 31915 ft 514 kts 74°
2026-05-01 14:56 -25.32497 -52.38849 32250 ft 512 kts 74°
2026-05-01 14:56 -25.31746 -52.35003 32549 ft 512 kts 75°
2026-05-01 14:57 -25.30993 -52.31152 32806 ft 513 kts 75°
2026-05-01 14:57 -25.29482 -52.23459 33394 ft 512 kts 75°
2026-05-01 14:57 -25.28719 -52.19614 33668 ft 512 kts 75°
2026-05-01 14:58 -25.27953 -52.15773 33936 ft 512 kts 75°
2026-05-01 14:58 -25.27195 -52.11975 34211 ft 512 kts 75°
2026-05-01 14:58 -25.26430 -52.08146 34497 ft 510 kts 75°
2026-05-01 14:58 -25.25667 -52.04325 34788 ft 509 kts 75°
2026-05-01 14:59 -25.24905 -52.00513 35076 ft 507 kts 75°
2026-05-01 14:59 -25.24139 -51.96690 35138 ft 511 kts 75°
2026-05-01 14:59 -25.22600 -51.89021 35144 ft 510 kts 74°
2026-05-01 15:00 -25.20304 -51.77604 35155 ft 506 kts 74°
2026-05-01 15:01 -25.18773 -51.70026 35175 ft 505 kts 74°
2026-05-01 15:01 -25.17240 -51.62455 35170 ft 505 kts 74°
2026-05-01 15:02 -25.15701 -51.54888 35174 ft 505 kts 74°
2026-05-01 15:02 -25.14152 -51.47311 35180 ft 506 kts 74°
2026-05-01 15:03 -25.12608 -51.39779 35191 ft 506 kts 74°
2026-05-01 15:03 -25.11050 -51.32193 35184 ft 508 kts 74°
2026-05-01 15:04 -25.09484 -51.24585 35189 ft 508 kts 74°
2026-05-01 15:04 -25.07913 -51.16974 35170 ft 510 kts 74°
2026-05-01 15:05 -25.06337 -51.09353 35168 ft 510 kts 74°
2026-05-01 15:05 -25.04754 -51.01723 35173 ft 510 kts 74°
2026-05-01 15:06 -25.03177 -50.94160 35180 ft 509 kts 74°
2026-05-01 15:06 -25.01584 -50.86546 35152 ft 509 kts 74°
2026-05-01 15:07 -24.99989 -50.78938 35163 ft 509 kts 74°
2026-05-01 15:07 -24.98392 -50.71336 35174 ft 508 kts 74°
2026-05-01 15:08 -24.96795 -50.63752 35156 ft 508 kts 74°
2026-05-01 15:08 -24.95201 -50.56166 35178 ft 507 kts 74°
2026-05-01 15:09 -24.93606 -50.48585 35171 ft 508 kts 74°
2026-05-01 15:09 -24.92017 -50.41060 35166 ft 507 kts 74°
2026-05-01 15:10 -24.90413 -50.33479 35168 ft 507 kts 74°
2026-05-01 15:10 -24.87993 -50.22139 35174 ft 507 kts 74°
2026-05-01 15:11 -24.85558 -50.10805 35174 ft 507 kts 74°
2026-05-01 15:12 -24.83943 -50.03296 35177 ft 507 kts 74°
2026-05-01 15:12 -24.81497 -49.91961 35175 ft 507 kts 74°
2026-05-01 15:14 -24.77070 -49.73204 35172 ft 505 kts 70°
2026-05-01 15:14 -24.74075 -49.62128 35177 ft 505 kts 71°
2026-05-01 15:15 -24.70170 -49.47294 35176 ft 505 kts 71°
2026-05-01 15:16 -24.66585 -49.33706 35173 ft 505 kts 71°
2026-05-01 15:18 -24.61725 -49.15182 35166 ft 503 kts 71°
2026-05-01 15:19 -24.57768 -49.00479 35185 ft 501 kts 70°
2026-05-01 15:19 -24.54811 -48.89517 35175 ft 500 kts 70°
2026-05-01 15:20 -24.51839 -48.78522 35170 ft 500 kts 70°
2026-05-01 15:21 -24.49861 -48.71218 35156 ft 498 kts 70°
2026-05-01 15:21 -24.47895 -48.63947 35171 ft 497 kts 70°
2026-05-01 15:22 -24.44936 -48.53030 35178 ft 497 kts 70°
2026-05-01 15:22 -24.42970 -48.45800 35175 ft 498 kts 70°
2026-05-01 15:23 -24.40981 -48.38500 35184 ft 500 kts 70°
2026-05-01 15:23 -24.38973 -48.31144 35180 ft 501 kts 70°
2026-05-01 15:24 -24.36983 -48.23865 35168 ft 501 kts 70°
2026-05-01 15:24 -24.34144 -48.16998 35177 ft 489 kts 46°
2026-05-01 15:25 -24.31821 -48.14334 35172 ft 480 kts 33°
2026-05-01 15:25 -24.29086 -48.12329 35170 ft 468 kts 21°
2026-05-01 15:25 -24.23304 -48.09052 35180 ft 468 kts 21°
2026-05-01 15:26 -24.17524 -48.05722 35160 ft 470 kts 22°
2026-05-01 15:26 -24.11747 -48.02337 35164 ft 471 kts 22°
2026-05-01 15:27 -24.08893 -48.00653 35143 ft 459 kts 22°
2026-05-01 15:27 -24.06128 -47.99017 35146 ft 445 kts 22°
2026-05-01 15:27 -24.03446 -47.97434 35144 ft 431 kts 22°
2026-05-01 15:28 -23.98262 -47.94390 34441 ft 424 kts 22°
2026-05-01 15:28 -23.95598 -47.92841 33213 ft 443 kts 22°
2026-05-01 15:28 -23.92848 -47.91240 32395 ft 451 kts 23°
2026-05-01 15:29 -23.87396 -47.88038 31664 ft 442 kts 23°
2026-05-01 15:29 -23.84699 -47.86454 31312 ft 437 kts 23°
2026-05-01 15:29 -23.79353 -47.83326 30441 ft 434 kts 23°
2026-05-01 15:30 -23.74333 -47.79687 29493 ft 438 kts 40°
2026-05-01 15:31 -23.65887 -47.70510 27932 ft 421 kts 40°
2026-05-01 15:31 -23.61721 -47.66144 27107 ft 415 kts 40°
2026-05-01 15:32 -23.57590 -47.61806 26318 ft 409 kts 40°
2026-05-01 15:32 -23.53524 -47.57537 25515 ft 401 kts 40°
2026-05-01 15:33 -23.47627 -47.51349 24535 ft 384 kts 40°
2026-05-01 15:34 -23.41760 -47.45208 23659 ft 396 kts 40°